{"data":{"norad_id":55620,"intl_designator":"2023-020BD","name":"STARLINK-5718","alt_names":[],"object_type":"PAYLOAD","status":"ACTIVE","operator":null,"country":"US","launch_date":"2023-02-12","launch_site_code":"AFETR","launch_vehicle":null,"mission":null,"orbit_class":"UNKNOWN","rcs_meters":null,"size_class":null,"mass_kg":null,"dimensions":null,"purposes":["comms"],"wikipedia_slug":null,"has_3d_model":false,"image_url":null,"decayed_at":null,"tle_current":{"epoch":"2026-05-25T02:04:56.121024Z","epoch_age_seconds":60920,"freshness":"FRESH","line1":"1 55620U 23020BD  26145.08676066 -.00000153  00000+0  39762-5 0  9993","line2":"2 55620  43.0004 282.7426 0001334 270.1957  89.8742 15.27577617180728","mean_motion":15.27577617,"eccentricity":0.0001334,"inclination_deg":43.0004,"raan_deg":282.7426,"arg_perigee_deg":270.1957,"mean_anomaly_deg":89.8742,"bstar":3.9762e-6,"rev_number":18072,"period_min":94.266895768479,"perigee_km":482.14094843111,"apogee_km":483.97151478531,"semimajor_km":6861.1932316082,"source":"CELESTRAK","updated_at":"2026-05-25T13:38:17.845529Z"}}}